EW8665 Weather Reports


Display with metric or nautical units.
time (UTC)temp
F
wind
direction
speed
MPH
gust
MPH
rain 1hr
in
rain 24hr
in
rain mn
in
humidity
%
barometer
mb
20260902073505 65 238 3.0 6.0 0.00 0.00 0.00 69 1022.4
20260902073007 65 238 4.0 8.0 0.00 0.00 0.00 69 1022.2
20260902072505 65 246 4.0 8.0 0.00 0.00 0.00 69 1022.0
20260902071505 65 257 1.0 4.0 0.00 0.00 0.00 71 1021.9
20260902071005 64 101 0.0 2.0 0.00 0.00 0.00 72 1021.8
20260902070506 64 87 0.0 0.0 0.00 0.00 0.00 73 1021.8
20260902070006 63 68 0.0 2.0 0.00 0.00 0.00 75 1021.6
20260902065505 63 72 0.0 2.0 0.00 0.00 0.00 76 1021.8
20260902065005 62 91 1.0 2.0 0.00 0.00 0.00 77 1021.9
20260902064005 61 92 1.0 2.0 0.00 0.00 0.00 76 1021.9
20260902063505 61 91 1.0 2.0 0.00 0.00 0.00 76 1022.0
20260902063005 61 94 0.0 2.0 0.00 0.00 0.00 76 1021.9
20260902062006 61 75 1.0 2.0 0.00 0.00 0.00 76 1022.0
20260902061505 61 70 2.0 5.0 0.00 0.00 0.00 76 1021.7
20260902061007 60 70 3.0 5.0 0.00 0.00 0.00 76 1021.7
20260902060505 60 71 2.0 5.0 0.00 0.00 0.00 77 1021.9
20260902060005 60 69 2.0 6.0 0.00 0.00 0.00 77 1021.9
20260902055505 59 66 3.0 6.0 0.00 0.00 0.00 78 1022.0
20260902054005 58 69 3.0 4.0 0.00 0.00 0.00 80 1021.9
20260902053505 58 65 3.0 6.0 0.00 0.00 0.00 80 1022.0
20260902053005 58 68 3.0 6.0 0.00 0.00 0.00 80 1022.1
20260902052505 58 72 2.0 4.0 0.00 0.00 0.00 81 1021.9
20260902052005 58 74 2.0 4.0 0.00 0.00 0.00 81 1021.8
20260902051505 57 74 2.0 4.0 0.00 0.00 0.00 81 1021.9
20260902051005 57 77 2.0 4.0 0.00 0.00 0.00 81 1021.8
20260902050008 57 76 3.0 5.0 0.00 0.00 0.00 81 1021.6
20260902045505 57 79 3.0 5.0 0.00 0.00 0.00 81 1021.7
20260902044505 57 79 3.0 4.0 0.00 0.00 0.00 80 1021.7
20260902044005 57 76 2.0 4.0 0.00 0.00 0.00 80 1021.8
20260902043506 57 70 2.0 4.0 0.00 0.00 0.00 80 1021.7
20260902042505 58 69 1.0 2.0 0.00 0.00 0.00 80 1021.7
20260902041005 58 87 2.0 3.0 0.00 0.00 0.00 79 1021.7
20260902040505 58 93 1.0 3.0 0.00 0.00 0.00 79 1021.6
20260902040007 58 90 1.0 3.0 0.00 0.00 0.00 78 1021.5
20260902035505 58 90 1.0 2.0 0.00 0.00 0.00 78 1021.6
20260902035005 58 88 1.0 3.0 0.00 0.00 0.00 78 1021.6
20260902034505 58 86 2.0 4.0 0.00 0.00 0.00 78 1021.6
20260902034005 58 86 3.0 4.0 0.00 0.00 0.00 79 1021.6
20260902033504 58 82 2.0 4.0 0.00 0.00 0.00 79 1021.5
20260902032504 58 85 2.0 4.0 0.00 0.00 0.00 79 1021.8
20260902032005 58 89 2.0 4.0 0.00 0.00 0.00 79 1021.7
20260902031506 58 95 2.0 4.0 0.00 0.00 0.00 79 1021.8
20260902031004 58 91 2.0 4.0 0.00 0.00 0.00 79 1022.1
20260902030505 58 94 2.0 4.0 0.00 0.00 0.00 79 1022.0
20260902025504 58 95 2.0 4.0 0.00 0.00 0.00 78 1022.1
20260902025006 58 92 2.0 4.0 0.00 0.00 0.00 78 1022.0
20260902024505 58 84 3.0 4.0 0.00 0.00 0.00 79 1022.3
20260902023505 58 90 2.0 3.0 0.00 0.00 0.00 79 1022.1
20260902023004 58 95 2.0 3.0 0.00 0.00 0.00 79 1022.1
20260902022506 58 93 2.0 3.0 0.00 0.00 0.00 79 1022.1
20260902022005 58 94 2.0 3.0 0.00 0.00 0.00 78 1021.9
20260902021005 58 90 2.0 3.0 0.00 0.00 0.00 77 1022.0
20260902020505 58 90 1.0 3.0 0.00 0.00 0.00 77 1021.9
20260902020006 59 88 1.0 2.0 0.00 0.00 0.00 77 1022.1
20260902015504 58 87 1.0 2.0 0.00 0.00 0.00 77 1021.9
20260902013505 59 77 1.0 2.0 0.00 0.00 0.00 76 1022.0
20260902013005 59 77 2.0 2.0 0.00 0.00 0.00 76 1021.9
20260902012505 59 79 2.0 3.0 0.00 0.00 0.00 75 1021.9
20260902012005 59 81 2.0 3.0 0.00 0.00 0.00 75 1021.9
20260902011505 60 82 2.0 3.0 0.00 0.00 0.00 75 1022.0
20260902010505 60 88 2.0 4.0 0.00 0.00 0.00 74 1022.1
20260902010005 60 87 2.0 4.0 0.00 0.00 0.00 74 1022.1
20260902005006 60 84 2.0 3.0 0.00 0.00 0.00 73 1022.4
20260902004505 60 85 2.0 3.0 0.00 0.00 0.00 73 1022.3
20260902004005 61 84 3.0 4.0 0.00 0.00 0.00 73 1022.2
20260902003504 61 81 3.0 4.0 0.00 0.00 0.00 73 1022.3
20260902003005 61 82 2.0 4.0 0.00 0.00 0.00 73 1022.3
20260902002004 61 83 2.0 3.0 0.00 0.00 0.00 73 1022.4
20260902001504 61 78 2.0 3.0 0.00 0.00 0.00 72 1022.2
20260902001005 61 68 2.0 3.0 0.00 0.00 0.00 72 1022.5
20260902000005 61 57 2.0 2.0 0.00 0.00 0.00 72 1022.4
20260901235505 62 54 2.0 3.0 0.00 0.00 0.00 72 1022.4
20260901235005 62 48 2.0 4.0 0.00 0.00 0.00 72 1022.4
20260901234504 62 47 2.0 4.0 0.00 0.00 0.00 72 1022.4
20260901234006 62 54 2.0 3.0 0.00 0.00 0.00 72 1022.4
20260901233005 62 52 2.0 4.0 0.00 0.00 0.00 72 1022.7
20260901232505 62 46 3.0 4.0 0.00 0.00 0.00 72 1022.7
20260901232004 62 45 2.0 4.0 0.00 0.00 0.00 72 1022.8
20260901231505 62 42 2.0 4.0 0.00 0.00 0.00 72 1022.6
20260901231005 62 38 2.0 4.0 0.00 0.00 0.00 72 1022.6
20260901230506 62 36 2.0 4.0 0.00 0.00 0.00 72 1022.7
20260901230005 62 44 2.0 4.0 0.00 0.00 0.00 72 1022.9
20260901225504 62 53 2.0 4.0 0.00 0.00 0.00 72 1022.7
20260901225004 62 58 2.0 4.0 0.00 0.00 0.00 72 1022.8
20260901224504 62 62 2.0 4.0 0.00 0.00 0.00 72 1022.6
20260901224004 63 60 2.0 5.0 0.00 0.00 0.00 71 1022.7
20260901223505 63 57 3.0 5.0 0.00 0.00 0.00 71 1022.9
20260901223006 63 54 2.0 5.0 0.00 0.00 0.00 70 1022.7
20260901222506 63 44 2.0 3.0 0.00 0.00 0.00 69 1022.9
20260901222005 63 41 1.0 2.0 0.00 0.00 0.00 69 1022.7
20260901221504 63 41 2.0 3.0 0.00 0.00 0.00 69 1022.6
20260901221005 64 44 1.0 3.0 0.00 0.00 0.00 65 1022.7
20260901220505 64 47 2.0 4.0 0.00 0.00 0.00 65 1022.6
20260901220006 64 43 2.0 4.0 0.00 0.00 0.00 65 1022.7
20260901215505 64 43 2.0 4.0 0.00 0.00 0.00 64 1022.7
20260901215005 64 39 3.0 5.0 0.00 0.00 0.00 64 1022.7
20260901214505 64 31 3.0 5.0 0.00 0.00 0.00 64 1022.7
20260901214005 64 23 3.0 5.0 0.00 0.00 0.00 64 1022.6
20260901213505 64 18 3.0 5.0 0.00 0.00 0.00 64 1022.7
20260901213005 64 15 3.0 5.0 0.00 0.00 0.00 64 1022.7
20260901212505 64 10 3.0 5.0 0.00 0.00 0.00 64 1022.7
20260901211505 64 13 3.0 5.0 0.00 0.00 0.00 64 1022.7
20260901210005 64 12 3.0 5.0 0.00 0.00 0.00 64 1022.6
20260901205006 64 14 3.0 6.0 0.00 0.00 0.00 64 1022.8
20260901204505 65 13 3.0 6.0 0.00 0.00 0.00 64 1022.8
20260901204006 65 16 3.0 5.0 0.00 0.00 0.00 64 1022.9
20260901203505 65 17 3.0 7.0 0.00 0.00 0.00 64 1022.8
20260901203004 65 16 3.0 7.0 0.00 0.00 0.00 63 1022.7
20260901202005 65 15 3.0 5.0 0.00 0.00 0.00 63 1022.7
20260901201504 65 15 3.0 5.0 0.00 0.00 0.00 63 1022.9
20260901201005 65 12 3.0 5.0 0.00 0.00 0.00 63 1022.8
20260901200505 65 11 3.0 4.0 0.00 0.00 0.00 63 1022.9
20260901200005 65 13 3.0 4.0 0.00 0.00 0.00 63 1022.9
20260901194504 65 7 3.0 6.0 0.00 0.00 0.00 63 1022.8
20260901194005 66 4 3.0 4.0 0.00 0.00 0.00 63 1022.8
20260901193505 66 12 3.0 4.0 0.00 0.00 0.00 63 1022.7
20260901193004 66 16 3.0 4.0 0.00 0.00 0.00 63 1022.8
20260901192505 66 25 3.0 5.0 0.00 0.00 0.00 63 1022.7
20260901191504 66 29 3.0 4.0 0.00 0.00 0.00 63 1022.6
20260901191005 67 40 3.0 5.0 0.00 0.00 0.00 63 1022.5
20260901190506 67 32 3.0 8.0 0.00 0.00 0.00 63 1022.7
20260901190005 67 27 4.0 8.0 0.00 0.00 0.00 63 1022.5
20260901185505 67 28 4.0 8.0 0.00 0.00 0.00 63 1022.5
20260901185005 67 33 4.0 8.0 0.00 0.00 0.00 63 1022.5
20260901184006 67 32 4.0 5.0 0.00 0.00 0.00 63 1022.5
20260901183505 67 43 4.0 7.0 0.00 0.00 0.00 63 1022.4
20260901183005 68 46 4.0 7.0 0.00 0.00 0.00 63 1022.4
20260901182505 68 46 3.0 5.0 0.00 0.00 0.00 64 1022.4
20260901182005 68 44 4.0 6.0 0.00 0.00 0.00 64 1022.4
20260901181504 68 38 4.0 6.0 0.00 0.00 0.00 63 1022.2
20260901181005 69 35 4.0 6.0 0.00 0.00 0.00 63 1022.2
20260901180504 69 30 3.0 6.0 0.00 0.00 0.00 63 1022.1
20260901180005 69 34 3.0 5.0 0.00 0.00 0.00 63 1022.1
20260901175505 69 35 3.0 5.0 0.00 0.00 0.00 63 1022.0
20260901175004 70 42 3.0 5.0 0.00 0.00 0.00 63 1022.1
20260901174505 70 52 2.0 5.0 0.00 0.00 0.00 61 1022.2
20260901174007 71 58 2.0 3.0 0.00 0.00 0.00 60 1022.2
20260901173504 71 55 3.0 5.0 0.00 0.00 0.00 60 1022.1
20260901173005 72 47 3.0 6.0 0.00 0.00 0.00 59 1022.0
20260901172506 72 43 3.0 6.0 0.00 0.00 0.00 58 1022.2
20260901172004 72 28 3.0 5.0 0.00 0.00 0.00 57 1022.1
20260901171505 72 14 2.0 5.0 0.00 0.00 0.00 54 1022.1
20260901170505 73 348 2.0 3.0 0.00 0.00 0.00 50 1022.1
20260901170005 73 349 2.0 3.0 0.00 0.00 0.00 50 1022.1
20260901165504 74 342 2.0 3.0 0.00 0.00 0.00 49 1022.0
20260901165005 74 341 2.0 3.0 0.00 0.00 0.00 48 1022.1
20260901164505 75 342 2.0 3.0 0.00 0.00 0.00 47 1022.2
20260901164005 76 346 2.0 3.0 0.00 0.00 0.00 45 1022.3
20260901163504 76 3 2.0 4.0 0.00 0.00 0.00 45 1022.4
20260901162004 76 13 2.0 4.0 0.00 0.00 0.00 46 1022.3
20260901161004 76 13 3.0 5.0 0.00 0.00 0.00 45 1022.4
20260901160507 76 8 2.0 5.0 0.00 0.00 0.00 45 1022.3
20260901160005 76 9 1.0 3.0 0.00 0.00 0.00 45 1022.4
20260901155505 76 15 2.0 3.0 0.00 0.00 0.00 45 1022.5
20260901155004 76 16 2.0 5.0 0.00 0.00 0.00 45 1022.4
20260901154505 76 354 3.0 5.0 0.00 0.00 0.00 45 1022.5
20260901154005 76 317 3.0 5.0 0.00 0.00 0.00 45 1022.4
20260901153504 76 222 2.0 5.0 0.00 0.00 0.00 45 1022.5
20260901153005 76 215 2.0 3.0 0.00 0.00 0.00 45 1022.6
20260901152005 76 220 2.0 5.0 0.00 0.00 0.00 45 1022.6
20260901151505 77 222 3.0 6.0 0.00 0.00 0.00 45 1022.6
20260901150505 77 242 2.0 5.0 0.00 0.00 0.00 45 1022.5
20260901145506 77 261 3.0 6.0 0.00 0.00 0.00 45 1022.6
20260901145004 76 259 3.0 6.0 0.00 0.00 0.00 45 1022.5
20260901144004 76 258 4.0 6.0 0.00 0.00 0.00 45 1022.5
20260901143005 76 199 4.0 8.0 0.00 0.00 0.00 45 1022.6
20260901142504 76 165 4.0 8.0 0.00 0.00 0.00 45 1022.6
20260901141005 76 223 2.0 6.0 0.00 0.00 0.00 45 1022.6
20260901140505 76 142 2.0 6.0 0.00 0.00 0.00 45 1022.8
20260901140005 75 357 3.0 6.0 0.00 0.00 0.00 45 1022.8
20260901135504 76 241 2.0 5.0 0.00 0.00 0.00 45 1022.8
20260901135005 76 242 3.0 8.0 0.00 0.00 0.00 45 1022.9
20260901134505 76 228 3.0 8.0 0.00 0.00 0.00 45 1022.7
20260901134004 76 233 3.0 6.0 0.00 0.00 0.00 45 1023.0
20260901133505 76 261 4.0 9.0 0.00 0.00 0.00 45 1022.7
20260901133005 76 262 4.0 9.0 0.00 0.00 0.00 45 1023.0
20260901132504 76 277 3.0 5.0 0.00 0.00 0.00 45 1023.0
20260901132006 76 267 3.0 7.0 0.00 0.00 0.00 45 1023.0
20260901131504 76 256 4.0 8.0 0.00 0.00 0.00 45 1023.1
20260901131005 76 257 4.0 9.0 0.00 0.00 0.00 45 1023.0
20260901125505 77 241 4.0 11.0 0.00 0.00 0.00 45 1023.0
20260901125004 77 244 3.0 8.0 0.00 0.00 0.00 45 1023.0
20260901124505 76 246 5.0 8.0 0.00 0.00 0.00 45 1023.2
20260901123504 76 231 5.0 9.0 0.00 0.00 0.00 45 1023.2
20260901123005 76 208 5.0 9.0 0.00 0.00 0.00 46 1023.3
20260901122006 76 210 3.0 7.0 0.00 0.00 0.00 46 1023.3
20260901121505 75 219 3.0 7.0 0.00 0.00 0.00 46 1023.4
20260901121004 75 272 3.0 7.0 0.00 0.00 0.00 47 1023.2
20260901120505 74 275 3.0 7.0 0.00 0.00 0.00 46 1023.5
20260901120005 75 264 4.0 7.0 0.00 0.00 0.00 46 1023.4
20260901115504 74 255 3.0 7.0 0.00 0.00 0.00 46 1023.4
20260901115005 75 252 3.0 13.0 0.00 0.00 0.00 46 1023.4
20260901114505 75 249 6.0 13.0 0.00 0.00 0.00 46 1023.4
20260901114004 76 246 7.0 13.0 0.00 0.00 0.00 46 1023.5
20260901113504 76 229 6.0 13.0 0.00 0.00 0.00 46 1023.6
20260901113004 76 232 5.0 12.0 0.00 0.00 0.00 46 1023.4
20260901112504 76 240 3.0 6.0 0.00 0.00 0.00 47 1023.3
20260901112006 75 223 4.0 10.0 0.00 0.00 0.00 46 1023.7
20260901111504 76 218 4.0 10.0 0.00 0.00 0.00 46 1023.5
20260901110504 75 214 2.0 5.0 0.00 0.00 0.00 46 1023.4
20260901110005 75 223 2.0 4.0 0.00 0.00 0.00 46 1023.5
20260901105504 74 219 3.0 8.0 0.00 0.00 0.00 47 1023.5
20260901104504 74 231 3.0 6.0 0.00 0.00 0.00 47 1023.8
20260901103504 74 231 5.0 8.0 0.00 0.00 0.00 46 1023.8
20260901103005 74 226 4.0 8.0 0.00 0.00 0.00 47 1024.0
20260901102504 73 226 3.0 8.0 0.00 0.00 0.00 49 1023.9
20260901102004 73 208 2.0 7.0 0.00 0.00 0.00 50 1023.9
20260901101004 73 225 2.0 6.0 0.00 0.00 0.00 50 1024.1
20260901100504 73 212 3.0 6.0 0.00 0.00 0.00 49 1024.1
20260901100004 73 206 3.0 6.0 0.00 0.00 0.00 49 1024.1
20260901095506 73 209 3.0 6.0 0.00 0.00 0.00 49 1024.0
20260901095005 73 212 3.0 6.0 0.00 0.00 0.00 50 1024.1
20260901094505 73 215 3.0 6.0 0.00 0.00 0.00 50 1024.1
20260901094006 72 217 3.0 7.0 0.00 0.00 0.00 50 1024.1
20260901093505 72 226 3.0 7.0 0.00 0.00 0.00 50 1024.0
20260901093005 72 240 4.0 8.0 0.00 0.00 0.00 54 1024.2
20260901092004 71 258 3.0 6.0 0.00 0.00 0.00 56 1024.2
20260901091504 71 260 2.0 5.0 0.00 0.00 0.00 62 1023.8
20260901091004 71 263 3.0 5.0 0.00 0.00 0.00 62 1024.0
20260901090004 70 273 3.0 8.0 0.00 0.00 0.00 64 1024.0
20260901085505 70 274 3.0 8.0 0.00 0.00 0.00 64 1023.9
20260901085004 70 265 3.0 8.0 0.00 0.00 0.00 64 1023.9
20260901084004 70 266 5.0 8.0 0.00 0.00 0.00 64 1023.8
20260901083504 70 252 3.0 8.0 0.00 0.00 0.00 64 1023.9
20260901081505 69 262 3.0 6.0 0.00 0.00 0.00 65 1023.7
20260901080505 69 254 3.0 6.0 0.00 0.00 0.00 65 1023.3
20260901080004 69 241 2.0 6.0 0.00 0.00 0.00 66 1023.5
20260901075504 68 239 3.0 6.0 0.00 0.00 0.00 66 1023.5
20260901075005 68 238 3.0 6.0 0.00 0.00 0.00 67 1023.4
20260901074504 68 234 3.0 6.0 0.00 0.00 0.00 66 1023.4
20260901074004 68 234 2.0 3.0 0.00 0.00 0.00 67 1023.4